Regional Weather Roundup
Issued by NWS

Home | Current Version | Previous Version | Graphics & Text | Print | Product List | Glossary On
Versions: 1 2 3 4 5 6 7 8 9 10 11 12 13 14 15 16 17 18 19 20 21 22 23 24 25 26 27 28
000
ASUS45 KCYS 172210
RWRWY

WYOMING REGIONAL WEATHER ROUNDUP
NATIONAL WEATHER SERVICE CHEYENNE WY
400 PM MDT THU AUG 17 2017

NOTE:  "FAIR" INDICATES FEW OR NO CLOUDS BELOW 12,000 FEET
WITH NO SIGNIFICANT WEATHER AND/OR OBSTRUCTIONS TO VISIBILITY.

WYZ001-172300-
YELLOWSTONE NATIONAL PARK

CITY           SKY/WX    TMP DP  RH WIND       PRES   REMARKS
LK YELLOWSTONE   N/A     67  31  26 W9G18     30.32R
W YELLOWSTONE  NOT AVBL

$$
WYZ002>013-054>058-071-098>099-172300-
NORTHERN WYOMING

CITY           SKY/WX    TMP DP  RH WIND       PRES   REMARKS
JACKSON        FAIR      73  34  23 SW7G20    30.22S
CODY           FAIR      72  48  42 N5        30.09S
GREYBULL       FAIR      87  33  14 N9        29.98F
WORLAND        FAIR      86  39  19 N9        30.00S
SHERIDAN       FAIR      78  43  28 S7        30.03F
BUFFALO        FAIR      78  37  22 N12       30.09F
GILLETTE       NOT AVBL
HULETT         LGT RAIN  72  41  33 SW7       30.07R
NEWCASTLE      MOCLDY    72  37  28 NW32G47   30.05R

$$
WYZ014>020-022>026-101>103-172300-
CENTRAL WYOMING

CITY           SKY/WX    TMP DP  RH WIND       PRES   REMARKS
BIG PINEY      FAIR      78  30  17 W14       30.24F
PINEDALE       FAIR      75  25  15 NW17G31   30.26S
DUBOIS         FAIR      73  27  17 W21G36    30.22F
LANDER           N/A    N/A N/A N/A MISG      30.06F
RIVERTON       FAIR      82  27  13 NW10G20   30.07F
CASPER         PTSUNNY   84  29  13 NW10G24   30.05F
DOUGLAS        FAIR      87  34  15 W22G32    30.02F

$$
WYZ021-027>030-104>119-172300-
SOUTHERN WYOMING

CITY           SKY/WX    TMP DP  RH WIND       PRES   REMARKS
EVANSTON       FAIR      79  35  20 W18G31    30.29S
KEMMERER         N/A     77  32  19 W22G30    30.28S
FORT BRIDGER   FAIR      82  29  14 W22G28    30.29S
ROCK SPRINGS   FAIR      80  30  16 W16G28    30.21F
RAWLINS        FAIR      78  32  18 W17G29    30.20F
SARATOGA       FAIR      72  37  28 W8        30.25S
LARAMIE        LGT RAIN  75  39  27 NW24G30   30.22F
CHEYENNE       FAIR      79  33  19 W20G29    30.14F
TORRINGTON     FAIR      89  35  14 N7        29.96F
PINE BLUFFS    FAIR      82  36  18 W7        30.07F

$$




USA.gov is the U.S. government's official web portal to all federal, state and local government web resources and services.